星链-33714 (STARLINK-33714)

导读

STARLINK-33714是美国于2025年4月14日发射的星链卫星,隶属于SpaceX公司的星链星座计划。星链项目旨在构建全球卫星互联网星座,为全球偏远地区、海洋等网络覆盖薄弱区域提供高速宽带互联网服务,该卫星的入轨进一步扩充了星链星座的规模,推进全球网络覆盖布局。

基本信息
目录编号:
63581
目录名称:
STARLINK-33714
国际标识:
2025-076N
轨道中心:
EARTH
卫星名称:
星链-33714
卫星全名:
星链-33714 (STARLINK-33714)
卫星状态:
在轨 (已飞行426 天)
发射日期:
2025-04-14 UTC
国别 :
美国 (US)
星等 :
--
轨道信息
数据来源 国际轨道数据 AOE轨道数据
星历时间 2026-06-13T22:52:13+0800
15小时前
查看轨道信息
2026-06-12T00:00:00+0800
2天前
查看轨道信息
半长轴 6861.103km 6861.224km
偏心率 0.0002869 0.0000831
轨道倾角 42.994° 42.997°
近地点辐角 279.220° 247.301°
升交点赤经 139.755° 150.790°
平近点角 80.832° 160.434°
近地点 480.997km 482.516km
远地点 484.935km 483.658km
周期 94.265分钟 94.268分钟
每日圈数 15.27608 15.275674
详细信息
固有亮度:
5
最大亮度:
2.5
卫星平台:
Starlink V1.0
覆盖范围:
全球
运营商:
太空探索技术公司
运营商所在国:
美国
制造商(研发单位):
太空探索技术公司
制造商所在国:
美国
使用方式:
暂无
卫星简介
Starlink 计划是 SpaceX 推出的全球卫星互联网项目,通过发射低轨道卫星,为全球尤其是偏远地区提供高速、低延迟的互联网服务。自 2019 年起,Starlink 已部署数千颗卫星,旨在缩小全球数字鸿沟,推动互联网普及。该项目还为军事、航空等行业提供通信支持,带来广泛经济效益。
2D轨道图
3D轨道图
轨道高度分析图
轨道倾角分析图
轨道综合分析图
查看轨道综合分析图